Terminal Aerodrome Forecast
Issued by NWS

Home | Current Version | Previous Version | Graphics & Text | Print | Product List | Glossary On
Versions: 1 2 3 4 5 6 7 8 9 10 11 12 13 14 15
699
FTUS43 KICT 271901 AAA
TAFSLN
TAF AMD
KSLN 271901Z 2719/2818 14015KT P6SM VCSH SCT025 BKN060
     FM272000 15012KT P6SM VCTS SCT015 BKN035CB
      TEMPO 2721/2724 VRB25G35KT 4SM TSRA BKN015CB
     FM280200 VRB05KT P6SM SCT040=

USA.gov is the U.S. government's official web portal to all federal, state and local government web resources and services.